STARLINK-5701, 55487

Orbit data source: Space-Track

STARLINK-5701, 55487 is a payload satellite owned by SpaceX/Seattle (US) in LEO that was launched on Thu, 02 Feb 2023 UTC via an FALCON 9 launch vehicle from the Air Force Eastern Test Range (AFETR). Payload-class satellites include a variety of spacecraft equipped with specific instruments for various scientific and technological missions. These include communications satellites like Starlink; space stations such as the ISS; scientific satellites like the Hubble; Earth observation satellites from companies like Planet Labs, Umbra, and HawkEye 360; GPS; miniature CubeSats for education and research; and military/defense satellites.

Loading next visibility...
Identifier
55487, 2023-015AQ
Orbit
LEO
Country
Flag of USUS
Related business
Manufacturer
SpaceX/Seattle
Mission
Operational Commercial Communications
Bus & Motor
STARLINK, Unknown motor
Mass
305 kg wet, ~290 kg dry
Launch date (UTC)
2023-02-02 (3 years ago)
Launch vehicle
FALCON 9
Launch site
Air Force Eastern Test Range (AFETR)
Object type
Payload
Rocket body
Debris
Shape & HBR
Box + 1 Pan, 10.1 m
Radar Cross Section
13.562 m², Large (>1 m²)

Expand to show TLE details & history
Last TLE update: 20 hours ago

TLE from 20 hours ago
0 STARLINK-5701
1 55487U 23015AQ  26132.30234280  .00000100  00000-0  13157-4 0  9998
2 55487  43.0051 340.5162 0001491 276.0392  84.0290 15.27577333180329
Epoch: 2026-05-12T07:15Z
TLE epoch observation values (Epoch: 2026-05-12T07:15:22.417Z)
Latitude
-0.00002°
Longitude
1.5941°
Altitude
482.727 km
Speed
7.626 km/s
True Right ascension
22h 42m 03s
True Declination
0° 00' 00"
Sunlit
Object was in daylight at epoch
Visualization orbit readout
Latitude
Unknown
Longitude
Unknown
Altitude
Unknown
Speed
Unknown
Apparent Right ascension
Unknown
Apparent Declination
Unknown
Sunlit
N/A
Visualization observer readout
Local Sidereal Time
11:18:03
Azimuth
Unknown
Elevation
Unknown
Doppler factor
Unknown
Orbital elements
Apogee altitude
486.025 km
Perigee altitude
483.978 km
Semi-major axis
6,863.138 km
Eccentricity
0.00015
Inclination
43.0051°
RAAN
340.5162°
Arg. of periapsis
276.0392°
True anomaly
84.04599°
Mean anomaly
84.029°
Eccentric anomaly
84.0375°
Mean motion
3.81732 °/min
Orbital period
94.31 mins
BSTAR
0.000013157
Loading maneuver chart data...
Computing Atmospheric mass density...
Loading historical data...
Loading historical data...
Loading historical data...
Loading historical data...
Loading historical data...
Loading historical data...
Loading historical data...

Documentation

Showing up to 5 results
|